When you browse on this site, cookies collect data to enhance your experience and personalize the content and advertising you see.
Visit our Privacy Policy to learn more. By continuing to use the site, you agree to this use of cookies and data.
  • In Spain
  • List of Countries
  • For 7 days
  • Water Temperature
  • Satellite Maps
  • Weather Map
  • Weather Widgets
  • user-avatar
    Login

    Hourly Weather Sidi Bu-l-Abbas

    Today, 20 January, Sunday

    Time Temperature Precipitation Wind Pressure Humidity
    00:00 +10°C° 0.1 mm 4 mps 718 mmHg 79%
    01:00 +10°C° 0.1 mm 4 mps 718 mmHg 78%
    02:00 +10°C° 0.1 mm 4 mps 717 mmHg 78%
    03:00 +9°C° 0.1 mm 3 mps 717 mmHg 77%
    04:00 +8°C° 1.7 mm 4 mps 717 mmHg 80%
    05:00 +9°C° 1.7 mm 5 mps 716 mmHg 83%
    06:00 +9°C° 1.7 mm 6 mps 716 mmHg 85%
    07:00 +9°C° 0.1 mm 7 mps 716 mmHg 83%
    08:00 +10°C° 0.1 mm 8 mps 716 mmHg 81%
    09:00 +10°C° 0.1 mm 9 mps 716 mmHg 79%
    10:00 +11°C° 0.3 mm 11 mps 716 mmHg 74%
    11:00 +12°C° 0.3 mm 12 mps 716 mmHg 69%
    12:00 +13°C° 0.3 mm 14 mps 715 mmHg 65%
    13:00 +13°C° 0.2 mm 14 mps 715 mmHg 64%
    14:00 +11°C° 0.2 mm 15 mps 715 mmHg 63%
    15:00 +11°C° 0.2 mm 16 mps 715 mmHg 63%
    16:00 +10°C° 0 mm 14 mps 715 mmHg 69%
    17:00 +9°C° 0 mm 13 mps 716 mmHg 76%
    18:00 +8°C° 0 mm 11 mps 716 mmHg 82%
    19:00 +8°C° 1.8 mm 11 mps 717 mmHg 85%
    20:00 +7°C° 1.8 mm 10 mps 717 mmHg 87%
    21:00 +7°C° 1.8 mm 10 mps 718 mmHg 90%
    22:00 +7°C° 0.9 mm 8 mps 719 mmHg 89%
    23:00 +8°C° 0.9 mm 6 mps 719 mmHg 88%

    Tomorrow, 21 January, Monday

    Time Temperature Precipitation Wind Pressure Humidity
    00:00 +8°C° 0.9 mm 4 mps 719 mmHg 88%
    01:00 +7°C° 0.4 mm 4 mps 720 mmHg 86%
    02:00 +7°C° 0.4 mm 5 mps 720 mmHg 85%
    03:00 +7°C° 0.4 mm 5 mps 720 mmHg 84%
    04:00 +7°C° 0.1 mm 5 mps 720 mmHg 84%
    05:00 +7°C° 0.1 mm 5 mps 720 mmHg 84%
    06:00 +7°C° 0.1 mm 4 mps 720 mmHg 84%
    07:00 +7°C° 0.1 mm 4 mps 720 mmHg 82%
    08:00 +7°C° 0.1 mm 4 mps 721 mmHg 81%
    09:00 +7°C° 0.1 mm 4 mps 721 mmHg 79%
    10:00 +8°C° 0.1 mm 4 mps 721 mmHg 74%
    11:00 +8°C° 0.1 mm 4 mps 721 mmHg 70%
    12:00 +9°C° 0.1 mm 5 mps 721 mmHg 66%
    13:00 +9°C° 0.1 mm 5 mps 721 mmHg 64%
    14:00 +9°C° 0.1 mm 5 mps 721 mmHg 63%
    15:00 +10°C° 0.1 mm 4 mps 721 mmHg 62%
    16:00 +8°C° 0 mm 4 mps 721 mmHg 66%
    17:00 +8°C° 0 mm 3 mps 721 mmHg 70%
    18:00 +8°C° 0 mm 2 mps 721 mmHg 74%
    19:00 +7°C° 0 mm 2 mps 722 mmHg 76%
    20:00 +7°C° 0 mm 2 mps 722 mmHg 78%
    21:00 +6°C° 0 mm 2 mps 722 mmHg 80%
    22:00 +6°C° 0 mm 2 mps 722 mmHg 77%
    23:00 +6°C° 0 mm 2 mps 722 mmHg 75%

    Day after tomorrow, 22 January, Tuesday

    Time Temperature Precipitation Wind Pressure Humidity
    00:00 +6°C° 0 mm 2 mps 722 mmHg 73%
    01:00 +6°C° 0.1 mm 2 mps 722 mmHg 73%
    02:00 +6°C° 0.1 mm 2 mps 722 mmHg 72%
    03:00 +5°C° 0.1 mm 3 mps 722 mmHg 72%
    04:00 +6°C° 0.1 mm 2 mps 722 mmHg 73%
    05:00 +5°C° 0.1 mm 2 mps 722 mmHg 74%
    06:00 +5°C° 0.1 mm 2 mps 722 mmHg 75%
    07:00 +5°C° 0 mm 3 mps 722 mmHg 71%
    08:00 +7°C° 0 mm 3 mps 722 mmHg 68%
    09:00 +6°C° 0 mm 4 mps 723 mmHg 65%
    10:00 +7°C° 0.1 mm 5 mps 723 mmHg 64%
    11:00 +8°C° 0.1 mm 7 mps 722 mmHg 64%
    12:00 +9°C° 0.1 mm 8 mps 722 mmHg 63%
    13:00 +8°C° 0.1 mm 9 mps 721 mmHg 62%
    14:00 +8°C° 0.1 mm 10 mps 721 mmHg 61%
    15:00 +8°C° 0.1 mm 10 mps 720 mmHg 61%
    16:00 +8°C° 0 mm 10 mps 719 mmHg 66%
    17:00 +7°C° 0 mm 9 mps 719 mmHg 72%
    18:00 +6°C° 0 mm 8 mps 718 mmHg 77%
    19:00 +6°C° 0 mm 9 mps 719 mmHg 77%
    20:00 +6°C° 0 mm 9 mps 719 mmHg 77%
    21:00 +6°C° 0 mm 10 mps 719 mmHg 77%
    22:00 +6°C° 0.1 mm 11 mps 719 mmHg 79%
    23:00 +7°C° 0.1 mm 11 mps 718 mmHg 81%

    23 January, Wednesday

    Time Temperature Precipitation Wind Pressure Humidity
    00:00 +7°C° 0.1 mm 12 mps 718 mmHg 83%
    01:00 +7°C° 1.7 mm 12 mps 717 mmHg 84%
    02:00 +5°C° 1.7 mm 13 mps 717 mmHg 86%
    03:00 +5°C° 1.7 mm 13 mps 717 mmHg 88%
    04:00 +5°C° 1.4 mm 13 mps 717 mmHg 87%
    05:00 +7°C° 1.4 mm 13 mps 717 mmHg 86%
    06:00 +6°C° 1.4 mm 14 mps 717 mmHg 86%
    07:00 +7°C° 0.4 mm 13 mps 717 mmHg 84%
    08:00 +7°C° 0.4 mm 12 mps 717 mmHg 83%
    09:00 +7°C° 0.4 mm 11 mps 718 mmHg 82%
    10:00 +7°C° 0 mm 12 mps 717 mmHg 80%
    11:00 +7°C° 0 mm 13 mps 717 mmHg 77%
    12:00 +8°C° 0 mm 13 mps 716 mmHg 75%
    13:00 +8°C° 0 mm 14 mps 716 mmHg 70%
    14:00 +9°C° 0 mm 15 mps 715 mmHg 65%
    15:00 +9°C° 0 mm 16 mps 715 mmHg 60%
    16:00 +9°C° 0 mm 16 mps 715 mmHg 65%
    17:00 +8°C° 0 mm 15 mps 715 mmHg 70%
    18:00 +6°C° 0 mm 14 mps 716 mmHg 76%
    19:00 +6°C° 0.1 mm 14 mps 716 mmHg 78%
    20:00 +7°C° 0.1 mm 13 mps 716 mmHg 80%
    21:00 +7°C° 0.1 mm 13 mps 716 mmHg 82%
    22:00 +7°C° 0.2 mm 13 mps 716 mmHg 83%
    23:00 +7°C° 0.2 mm 13 mps 716 mmHg 84%

    24 January, Thursday

    Time Temperature Precipitation Wind Pressure Humidity
    00:00 +7°C° 0.2 mm 13 mps 715 mmHg 84%
    01:00 +7°C° 0.1 mm 13 mps 715 mmHg 85%
    02:00 +7°C° 0.1 mm 13 mps 714 mmHg 85%
    03:00 +7°C° 0.1 mm 13 mps 714 mmHg 86%
    04:00 +7°C° 0.1 mm 12 mps 714 mmHg 86%
    05:00 +7°C° 0.1 mm 12 mps 713 mmHg 87%
    06:00 +7°C° 0.1 mm 12 mps 713 mmHg 88%
    07:00 +7°C° 0.2 mm 12 mps 713 mmHg 87%
    08:00 +8°C° 0.2 mm 12 mps 713 mmHg 86%
    09:00 +8°C° 0.2 mm 12 mps 714 mmHg 86%
    10:00 +8°C° 0.3 mm 12 mps 714 mmHg 85%
    11:00 +8°C° 0.3 mm 13 mps 713 mmHg 84%
    12:00 +8°C° 0.3 mm 13 mps 713 mmHg 84%
    13:00 +8°C° 1.3 mm 13 mps 713 mmHg 84%
    14:00 +8°C° 1.3 mm 12 mps 713 mmHg 84%
    15:00 +8°C° 1.3 mm 12 mps 714 mmHg 84%
    16:00 +7°C° 0.9 mm 9 mps 714 mmHg 82%
    17:00 +8°C° 0.9 mm 7 mps 714 mmHg 79%
    18:00 +7°C° 0.9 mm 4 mps 715 mmHg 76%
    19:00 +8°C° 0.1 mm 3 mps 716 mmHg 73%
    20:00 +8°C° 0.1 mm 2 mps 716 mmHg 70%
    21:00 +8°C° 0.1 mm 2 mps 717 mmHg 68%
    22:00 +7°C° 0 mm 2 mps 717 mmHg 67%
    23:00 +7°C° 0 mm 2 mps 717 mmHg 67%

    25 January, Friday

    Time Temperature Precipitation Wind Pressure Humidity
    00:00 +7°C° 0 mm 2 mps 717 mmHg 66%
    01:00 +8°C° 0 mm 1 mps 717 mmHg 66%
    02:00 +8°C° 0 mm 1 mps 717 mmHg 66%
    03:00 +8°C° 0 mm 1 mps 717 mmHg 65%
    04:00 +7°C° 0 mm 1 mps 717 mmHg 67%
    05:00 +6°C° 0 mm 2 mps 717 mmHg 68%
    06:00 +6°C° 0 mm 2 mps 718 mmHg 69%
    07:00 +5°C° 0 mm 3 mps 718 mmHg 67%
    08:00 +5°C° 0 mm 4 mps 719 mmHg 66%
    09:00 +5°C° 0 mm 5 mps 720 mmHg 64%
    10:00 +6°C° 0 mm 5 mps 720 mmHg 60%
    11:00 +6°C° 0 mm 5 mps 720 mmHg 55%
    12:00 +7°C° 0 mm 6 mps 721 mmHg 50%
    13:00 +7°C° 0 mm 5 mps 721 mmHg 50%
    14:00 +7°C° 0 mm 4 mps 721 mmHg 49%
    15:00 +8°C° 0 mm 2 mps 721 mmHg 48%
    16:00 +7°C° 0 mm 2 mps 722 mmHg 54%
    17:00 +8°C° 0 mm 1 mps 722 mmHg 60%
    18:00 +6°C° 0 mm 0 mps 722 mmHg 66%
    19:00 +5°C° 0 mm 0 mps 723 mmHg 68%
    20:00 +5°C° 0 mm 0 mps 723 mmHg 70%
    21:00 +4°C° 0 mm 0 mps 724 mmHg 72%
    22:00 +4°C° 0 mm 0 mps 724 mmHg 70%
    23:00 +5°C° 0 mm 1 mps 724 mmHg 69%
    Show more